Weather History for CWYJ - January, 2013

Change the Weather History Date:

Thursday, January 10, 2013

  Actual Average Record
Temperature  
Mean Temperature 37 °F -  
Max Temperature 42 °F - - ()
Min Temperature 32 °F - - ()
Degree Days  
Heating Degree Days 28    
Moisture  
Dew Point 31 °F    
Average Humidity 78    
Maximum Humidity 97    
Minimum Humidity 53    
Precipitation  
Precipitation 0.00 in - - ()
Sea Level Pressure  
Sea Level Pressure 30.05 in    
Wind  
Wind Speed 3 mph ()    
Max Wind Speed 9 mph    
Max Gust Speed -    
T = Trace of Precipitation, MM = Missing Value Source: Averaged Metar Reports

Daily Weather History Graph

Daily Weather History Graph

Search for Another Location

Airport or City:

Trip Planner

Search our weather history database for the weather conditions in past years. The results will help you decide how hot, cold, wet, or windy it might be!

Date:

Astronomy

Jan. 10, 2013 Rise Set
Actual Time 8:02 AM PST 4:39 PM PST
Civil Twilight 7:26 AM PST 5:15 PM PST
Nautical Twilight 6:47 AM PST 5:54 PM PST
Astronomical Twilight 6:09 AM PST 6:32 PM PST
Moon 6:47 AM PST (1/10) 3:55 PM PST (1/10)
Length of Visible Light 9h 48m
Length of Day
8h 37m
Waning Crescent, 1% of the Moon is Illuminated
Jan 10
Waning Crescent
Jan 11
New
Jan 18
First Quarter
Jan 26
Full
Feb 3
Last Quarter

Hourly Weather History & Observations

Time (PST) Temp. Windchill Dew Point Humidity Pressure Visibility Wind Dir Wind Speed Gust Speed Precip Events Conditions
12:00 AM 33.8 °F - 31.5 °F 91% 29.93 in - WSW 1.2 mph - N/A   Unknown
1:00 AM 33.4 °F - 31.8 °F 94% 29.93 in - SW 1.2 mph - N/A   Unknown
2:00 AM 31.6 °F 28.3 °F 30.9 °F 97% 29.95 in - SW 3.5 mph - N/A   Unknown
3:00 AM 34.5 °F - 32.9 °F 94% 29.97 in - WNW 2.3 mph - N/A   Unknown
4:00 AM 35 °F - 33 °F 89% 29.98 in - NNW 1.2 mph - -  
4:00 AM 34.9 °F - 32.9 °F 92% 29.98 in - NNW 1.2 mph - N/A   Unknown
5:00 AM 36.0 °F 33.3 °F 32.9 °F 89% 29.99 in - WNW 3.5 mph - N/A   Unknown
6:00 AM 35.6 °F - 31.5 °F 85% 30.00 in - NNW 1.2 mph - N/A   Unknown
7:00 AM 35.8 °F 33.0 °F 33.3 °F 91% 30.02 in - West 3.5 mph - N/A   Unknown
8:00 AM 35.6 °F - 33.1 °F 91% 30.05 in - WNW 2.3 mph - N/A   Unknown
9:00 AM 37.8 °F - 33.8 °F 86% 30.07 in - NNW 2.3 mph - N/A   Unknown
10:00 AM 39 °F - 31 °F 63% 30.08 in - NNW 4.6 mph - -  
10:00 AM 39.2 °F 35.9 °F 30.9 °F 72% 30.08 in - NNW 4.6 mph - N/A   Unknown
11:00 AM 39.2 °F 35.9 °F 30.2 °F 70% 30.09 in - NNW 4.6 mph - N/A   Unknown
12:00 PM 40.3 °F 35.5 °F 30.2 °F 67% 30.07 in - NNW 6.9 mph - N/A   Unknown
1:00 PM 42.3 °F 36.8 °F 30.0 °F 62% 30.06 in - NNW 9.2 mph - N/A   Unknown
2:00 PM 40.3 °F 34.9 °F 29.1 °F 64% 30.07 in - North 8.1 mph - N/A   Unknown
3:00 PM 39.6 °F 35.4 °F 28.2 °F 64% 30.08 in - North 5.8 mph - N/A   Unknown
4:00 PM 40 °F - 29 °F 53% 30.09 in - North 6.9 mph - -  
4:00 PM 39.6 °F 34.7 °F 28.9 °F 66% 30.09 in - North 6.9 mph - N/A   Unknown
5:00 PM 38.5 °F 34.1 °F 29.5 °F 70% 30.10 in - North 5.8 mph - N/A   Unknown
6:00 PM 37.2 °F 33.6 °F 28.9 °F 72% 30.10 in - NW 4.6 mph - N/A   Unknown
7:00 PM 37.4 °F 33.8 °F 28.4 °F 70% 30.11 in - NNW 4.6 mph - N/A   Unknown
9:00 PM 36.3 °F 32.5 °F 28.9 °F 75% 30.12 in - NW 4.6 mph - N/A   Unknown
10:00 PM 35 °F - 30 °F 77% 30.13 in - NW 3.5 mph - -  
10:00 PM 35.2 °F 32.4 °F 30.4 °F 82% 30.13 in - NW 3.5 mph - N/A   Unknown
11:00 PM 35.8 °F 31.9 °F 29.8 °F 79% 30.14 in - NW 4.6 mph - N/A   Unknown